User: anonymous   Login
Location: Gaast
(52.9002°N, 5.8891°E)
Time: 22:10:17
(UTC+00:00)
Language:

Cosmos 1763 Rocket - Orbit

View from above orbital plane
View from above orbital plane
View from above satellite
View from above satellite

Ground track
Ground track

The orbit is defined by the following mean orbital elements,

1 16864U          26020.31682477 +.00000000 +00000-0 +14610-3 0 00001
2 16864  74.0279  42.3292 0030570  90.9359 269.5300 14.42228776    06
Epoch (UTC): 20 January 2026 07:36:13
Eccentricity: 0.0030570
inclination: 74.0279°
perigee height: 729 km
apogee height: 773 km
right ascension of ascending node: 42.3292°
argument of perigee: 90.9359°
revolutions per day: 14.42228776
mean anomaly at epoch: 269.5300°

The dashed part of the orbit path shows where the satellite is in the earth's shadow,  

DLR